Charleston, SC

8:04 AM EST on December 09, 2016 (GMT -0500)
Charleston Executive

Weather History for KJZI - March, 2013

Change the Weather History Date:

Saturday, March 2, 2013

  Actual Average (KCHS) Record (KCHS)
Temperature  
Mean Temperature 44 °F -  
Max Temperature 51 °F 67 °F 85 °F (1976)
Min Temperature 37 °F 43 °F 22 °F (1980)
Degree Days  
Heating Degree Days 21    
Moisture  
Dew Point 31 °F    
Average Humidity 62    
Maximum Humidity 81    
Minimum Humidity 41    
Precipitation  
Precipitation 0.00 in - - ()
Sea Level Pressure  
Sea Level Pressure 29.92 in    
Wind  
Wind Speed 8 mph (West)    
Max Wind Speed 16 mph    
Max Gust Speed 25 mph    
Visibility 10 miles    
Events      
Averages and records for this station are not official NWS values.
T = Trace of Precipitation, MM = Missing Value Source: NWS Daily Summary

Daily Weather History Graph

Daily Weather History Graph

Search for Another Location

Airport or City:

Trip Planner

Search our weather history database for the weather conditions in past years. The results will help you decide how hot, cold, wet, or windy it might be!

Date:

Astronomy

Mar. 02, 2013 Rise Set
Actual Time 6:46 AM EST 6:18 PM EST
Civil Twilight 6:21 AM EST 6:43 PM EST
Nautical Twilight 5:53 AM EST 7:11 PM EST
Astronomical Twilight 5:24 AM EST 7:40 PM EST
Moon 11:35 PM EST (3/2) 9:32 AM EST (3/2)
Length of Visible Light 12h 21m
Length of Day
11h 32m
Waning Gibbous, 74% of the Moon is Illuminated
Mar 2
Waning Gibbous
Mar 4
Last Quarter
Mar 11
New
Mar 19
First Quarter
Mar 27
Full

Hourly Weather History & Observations

Time (EST) Temp. Windchill Dew Point Humidity Pressure Visibility Wind Dir Wind Speed Gust Speed Precip Events Conditions
12:15 AM 44.6 °F 40.7 °F 33.8 °F 66% 29.95 in 10.0 mi West 6.9 mph - 0.00 in   Clear
12:35 AM 44.6 °F 40.7 °F 33.8 °F 66% 29.95 in 10.0 mi West 6.9 mph - 0.00 in   Clear
12:55 AM 42.8 °F 37.5 °F 33.8 °F 70% 29.95 in 10.0 mi West 9.2 mph - 0.00 in   Clear
1:35 AM 42.8 °F 37.0 °F 33.8 °F 70% 29.95 in 10.0 mi West 10.4 mph - 0.00 in   Clear
1:55 AM 42.8 °F 37.5 °F 33.8 °F 70% 29.95 in 10.0 mi WNW 9.2 mph - 0.00 in   Clear
2:15 AM 41.0 °F 37.1 °F 33.8 °F 76% 29.94 in 10.0 mi WNW 5.8 mph - 0.00 in   Clear
2:35 AM 41.0 °F 35.8 °F 33.8 °F 76% 29.94 in 10.0 mi WNW 8.1 mph - 0.00 in   Clear
3:15 AM 39.2 °F 35.0 °F 32.0 °F 75% 29.93 in 10.0 mi WNW 5.8 mph - 0.00 in   Clear
3:35 AM 39.2 °F 34.2 °F 32.0 °F 75% 29.93 in 10.0 mi WNW 6.9 mph - 0.00 in   Clear
3:55 AM 39.2 °F 35.0 °F 32.0 °F 75% 29.92 in 10.0 mi WNW 5.8 mph - 0.00 in   Partly Cloudy
4:15 AM 39.2 °F 35.0 °F 32.0 °F 75% 29.93 in 10.0 mi West 5.8 mph - 0.00 in   Partly Cloudy
4:35 AM 37.4 °F 32.8 °F 32.0 °F 81% 29.93 in 10.0 mi WNW 5.8 mph - 0.00 in   Clear
5:15 AM 37.4 °F 32.8 °F 32.0 °F 81% 29.93 in 10.0 mi West 5.8 mph - 0.00 in   Clear
5:35 AM 37.4 °F 33.8 °F 32.0 °F 81% 29.94 in 10.0 mi West 4.6 mph - 0.00 in   Clear
6:15 AM 37.4 °F - 32.0 °F 81% 29.94 in 10.0 mi Calm Calm - 0.00 in   Clear
6:35 AM 37.4 °F 34.9 °F 32.0 °F 81% 29.93 in 10.0 mi WSW 3.5 mph - 0.00 in   Clear
6:55 AM 37.4 °F 34.9 °F 32.0 °F 81% 29.93 in 10.0 mi WSW 3.5 mph - 0.00 in   Clear
7:35 AM 37.4 °F - 32.0 °F 81% 29.94 in 10.0 mi Calm Calm - 0.00 in   Clear
8:15 AM 42.8 °F 39.3 °F 32.0 °F 66% 29.94 in 10.0 mi WSW 5.8 mph - 0.00 in   Clear
8:35 AM 42.8 °F 37.5 °F 32.0 °F 66% 29.94 in 10.0 mi West 9.2 mph - 0.00 in   Clear
8:55 AM 44.6 °F 39.2 °F 32.0 °F 61% 29.94 in 10.0 mi West 10.4 mph 17.3 mph 0.00 in   Clear
9:15 AM 44.6 °F 39.2 °F 32.0 °F 61% 29.94 in 10.0 mi West 10.4 mph - 0.00 in   Clear
9:35 AM 46.4 °F 40.7 °F 32.0 °F 57% 29.93 in 10.0 mi West 12.7 mph 17.3 mph 0.00 in   Clear
9:55 AM 46.4 °F 40.4 °F 32.0 °F 57% 29.93 in 10.0 mi West 13.8 mph 17.3 mph 0.00 in   Clear
10:15 AM 48.2 °F - 32.0 °F 54% 29.93 in 10.0 mi West 9.2 mph 16.1 mph 0.00 in   Clear
10:35 AM 50.0 °F - 32.0 °F 50% 29.92 in 10.0 mi West 10.4 mph 16.1 mph 0.00 in   Scattered Clouds
10:55 AM 50.0 °F - 28.4 °F 43% 29.91 in 10.0 mi SW 16.1 mph 21.9 mph 0.00 in   Mostly Cloudy
11:15 AM 50.0 °F - 28.4 °F 43% 29.91 in 10.0 mi WSW 13.8 mph 20.7 mph 0.00 in   Scattered Clouds
11:35 AM 50.0 °F - 28.4 °F 43% 29.91 in 10.0 mi West 11.5 mph 20.7 mph 0.00 in   Mostly Cloudy
11:55 AM 50.0 °F - 28.4 °F 43% 29.91 in 10.0 mi WSW 12.7 mph 18.4 mph 0.00 in   Mostly Cloudy
12:15 PM 51.8 °F - 28.4 °F 41% 29.90 in 10.0 mi West 13.8 mph - 0.00 in   Mostly Cloudy
12:35 PM 50.0 °F - 28.4 °F 43% 29.89 in 10.0 mi West 16.1 mph 21.9 mph 0.00 in   Mostly Cloudy
12:55 PM 50.0 °F - 28.4 °F 43% 29.88 in 10.0 mi WSW 12.7 mph 20.7 mph 0.00 in   Mostly Cloudy
1:15 PM 51.8 °F - 28.4 °F 41% 29.88 in 10.0 mi West 11.5 mph - 0.00 in   Partly Cloudy
1:35 PM 51.8 °F - 28.4 °F 41% 29.87 in 10.0 mi West 16.1 mph 25.3 mph 0.00 in   Mostly Cloudy
1:55 PM 51.8 °F - 28.4 °F 41% 29.87 in 10.0 mi WSW 15.0 mph 19.6 mph 0.00 in   Overcast
2:15 PM 50.0 °F - 28.4 °F 43% 29.86 in 10.0 mi West 15.0 mph 19.6 mph 0.00 in   Overcast
2:35 PM 50.0 °F - 28.4 °F 43% 29.86 in 10.0 mi WNW 13.8 mph 19.6 mph 0.00 in   Overcast
2:55 PM 48.2 °F - 30.2 °F 50% 29.86 in 10.0 mi West 16.1 mph 20.7 mph 0.00 in   Overcast
3:15 PM 50.0 °F - 30.2 °F 47% 29.86 in 10.0 mi West 16.1 mph 20.7 mph 0.00 in   Overcast
3:35 PM 48.2 °F - 30.2 °F 50% 29.87 in 10.0 mi West 13.8 mph 21.9 mph 0.00 in   Overcast
3:55 PM 48.2 °F - 32.0 °F 54% 29.87 in 10.0 mi WNW 13.8 mph 18.4 mph 0.00 in   Overcast
4:15 PM 48.2 °F - 30.2 °F 50% 29.87 in 10.0 mi West 13.8 mph 20.7 mph 0.00 in   Overcast
4:35 PM 48.2 °F - 32.0 °F 54% 29.88 in 10.0 mi West 13.8 mph - 0.00 in   Overcast
5:15 PM 48.2 °F - 32.0 °F 54% 29.88 in 10.0 mi West 10.4 mph - 0.00 in   Overcast
5:35 PM 48.2 °F - 32.0 °F 54% 29.89 in 10.0 mi West 15.0 mph - 0.00 in   Overcast
5:55 PM 46.4 °F 41.1 °F 32.0 °F 57% 29.90 in 10.0 mi WNW 11.5 mph - 0.00 in   Overcast
6:15 PM 46.4 °F 40.7 °F 32.0 °F 57% 29.90 in 10.0 mi WNW 12.7 mph - 0.00 in   Overcast
6:35 PM 46.4 °F 41.5 °F 32.0 °F 57% 29.91 in 10.0 mi West 10.4 mph - 0.00 in   Overcast
7:15 PM 46.4 °F 41.9 °F 32.0 °F 57% 29.91 in 10.0 mi West 9.2 mph - 0.00 in   Overcast
7:35 PM 44.6 °F 41.4 °F 32.0 °F 61% 29.92 in 10.0 mi West 5.8 mph - 0.00 in   Mostly Cloudy
7:55 PM 44.6 °F - 32.0 °F 61% 29.92 in 10.0 mi Calm Calm - 0.00 in   Overcast
8:15 PM 44.6 °F 42.2 °F 32.0 °F 61% 29.93 in 10.0 mi West 4.6 mph - 0.00 in   Scattered Clouds
8:35 PM 42.8 °F - 32.0 °F 66% 29.94 in 10.0 mi Calm Calm - 0.00 in   Clear
8:55 PM 42.8 °F 41.1 °F 32.0 °F 66% 29.94 in 10.0 mi West 3.5 mph - 0.00 in   Clear
9:15 PM 42.8 °F - 32.0 °F 66% 29.94 in 10.0 mi Calm Calm - 0.00 in   Clear
9:35 PM 41.0 °F - 33.8 °F 76% 29.95 in 10.0 mi Calm Calm - 0.00 in   Clear
9:55 PM 39.2 °F - 32.0 °F 75% 29.95 in 10.0 mi Calm Calm - 0.00 in   Clear
10:15 PM 41.0 °F 38.0 °F 32.0 °F 70% 29.95 in 10.0 mi West 4.6 mph - 0.00 in   Partly Cloudy
10:35 PM 41.0 °F 37.1 °F 32.0 °F 70% 29.95 in 10.0 mi WSW 5.8 mph - 0.00 in   Partly Cloudy
10:55 PM 41.0 °F 37.1 °F 32.0 °F 70% 29.95 in 10.0 mi West 5.8 mph - 0.00 in   Partly Cloudy
11:15 PM 39.2 °F - 32.0 °F 75% 29.94 in 10.0 mi Calm Calm - 0.00 in   Scattered Clouds
11:35 PM 39.2 °F 35.9 °F 32.0 °F 75% 29.94 in 10.0 mi West 4.6 mph - 0.00 in   Partly Cloudy
11:55 PM 39.2 °F 33.6 °F 32.0 °F 75% 29.94 in 10.0 mi West 8.1 mph - 0.00 in   Clear